Weather History for Winter Haven, FL

Change the Weather History Date:

Sunday, December 2, 2012

  Actual Average Record
Temperature  
Mean Temperature 70 °F -  
Max Temperature 81 °F 76 °F 106 °F (2007)
Min Temperature 59 °F 55 °F 34 °F (1963)
Cooling Degree Days 5    
Growing Degree Days 20 (Base 50)    
Moisture  
Dew Point 59 °F    
Average Humidity 74    
Maximum Humidity 96    
Minimum Humidity 41    
Precipitation  
Precipitation 0.00 in - - ()
Sea Level Pressure  
Sea Level Pressure 30.25 in    
Wind  
Wind Speed 6 mph (ENE)    
Max Wind Speed 13 mph    
Max Gust Speed -    
Visibility 10 miles    
Events      
Averages and records for this station are not official NWS values.
T = Trace of Precipitation, MM = Missing Value Source: NWS Daily Summary

Daily Weather History Graph

Daily Weather History Graph

Search for Another Location

Airport:

Trip Planner

Search our weather history database for the weather conditions in past years. The results will help you decide how hot, cold, wet, or windy it might be!

Date:

Astronomy

Dec. 02, 2012 Rise Set
Actual Time 7:02 AM EST 5:30 PM EST
Civil Twilight 6:36 AM EST 5:56 PM EST
Nautical Twilight 6:07 AM EST 6:25 PM EST
Astronomical Twilight 5:39 AM EST 6:53 PM EST
Moon 9:08 PM EST (12/2) 9:58 AM EST (12/2)
Length of Visible Light 11h 19m
Length of Day
10h 28m
Waning Gibbous, 86% of the Moon is Illuminated
Dec 2
Waning Gibbous
Dec 6
Last Quarter
Dec 13
New
Dec 20
First Quarter
Dec 28
Full

Hourly Weather History & Observations

Time (EST) Temp. Heat Index Dew Point Humidity Pressure Visibility Wind Dir Wind Speed Gust Speed Precip Events Conditions
12:53 AM 61.0 °F - 59.0 °F 93% 30.25 in 10.0 mi NE 4.6 mph - N/A   Clear
1:53 AM 62.1 °F - 59.0 °F 90% 30.24 in 10.0 mi NNE 5.8 mph - N/A   Scattered Clouds
2:53 AM 60.1 °F - 59.0 °F 96% 30.24 in 10.0 mi Calm Calm - N/A   Partly Cloudy
3:53 AM 60.1 °F - 57.9 °F 93% 30.23 in 9.0 mi Calm Calm - N/A   Scattered Clouds
4:53 AM 59.0 °F - 57.9 °F 96% 30.24 in 5.0 mi Calm Calm - N/A   Clear
5:53 AM 60.1 °F - 57.9 °F 93% 30.25 in 10.0 mi NNE 4.6 mph - N/A   Clear
6:53 AM 60.1 °F - 57.9 °F 93% 30.27 in 10.0 mi NNE 4.6 mph - N/A   Clear
7:53 AM 62.1 °F - 59.0 °F 90% 30.28 in 10.0 mi NNE 3.5 mph - N/A   Clear
8:53 AM 68.0 °F - 61.0 °F 78% 30.29 in 10.0 mi NE 5.8 mph - N/A   Clear
9:53 AM 73.0 °F - 61.0 °F 66% 30.30 in 10.0 mi ENE 8.1 mph - N/A   Clear
10:53 AM 77.0 °F - 60.1 °F 56% 30.29 in 10.0 mi NE 11.5 mph - N/A   Clear
11:53 AM 80.1 °F 80.4 °F 57.0 °F 45% 30.27 in 10.0 mi East 10.4 mph - N/A   Clear
12:53 PM 80.1 °F 80.4 °F 57.0 °F 45% 30.24 in 10.0 mi ENE 10.4 mph - N/A   Partly Cloudy
1:53 PM 81.0 °F 80.7 °F 55.0 °F 41% 30.21 in 10.0 mi East 9.2 mph - N/A   Clear
2:53 PM 81.0 °F 80.8 °F 55.9 °F 42% 30.20 in 10.0 mi ENE 11.5 mph - N/A   Partly Cloudy
3:53 PM 79.0 °F - 57.0 °F 47% 30.20 in 10.0 mi ENE 8.1 mph - N/A   Clear
4:53 PM 77.0 °F - 59.0 °F 54% 30.21 in 10.0 mi East 10.4 mph - N/A   Clear
5:53 PM 73.0 °F - 61.0 °F 66% 30.22 in 10.0 mi East 12.7 mph - N/A   Overcast
6:53 PM 71.1 °F - 63.0 °F 75% 30.24 in 10.0 mi East 10.4 mph - N/A   Overcast
7:53 PM 69.1 °F - 62.1 °F 78% 30.25 in 10.0 mi East 8.1 mph - N/A   Overcast
8:53 PM 68.0 °F - 62.1 °F 81% 30.25 in 10.0 mi East 9.2 mph - N/A   Partly Cloudy
9:53 PM 66.0 °F - 62.1 °F 87% 30.25 in 10.0 mi ESE 4.6 mph - N/A   Scattered Clouds
10:53 PM 64.0 °F - 61.0 °F 90% 30.25 in 10.0 mi ENE 5.8 mph - N/A   Clear
11:53 PM 64.0 °F - 62.1 °F 93% 30.24 in 10.0 mi East 5.8 mph - N/A   Overcast